Simultaneous Nadir Overpasses (SNOs) Predictions

Prediction of SNOs between NOAA-20 and LANDSAT-8 Satellite Orbit:

Table of predicted SNOs for the next 14.0 days since TLE Epoch: 2/10/2024
Index Date (NOAA-20) Time (NOAA-20) Lat,Lon (NOAA-20) SZA (NOAA-20 ) Date (LANDSAT-8) Time (LANDSAT-8) Lat,Lon (LANDSAT-8) SZA (LANDSAT-8 ) Distance(km) Time Diff (sec)
1 02/12/2024 14:16:00 -70.68, 141.48 95.51 02/12/2024 14:17:10 -70.56, 142.74 95.70 48.26 70
2 02/12/2024 15:06:35 70.08, -50.26 83.84 02/12/2024 15:06:44 70.07, -50.32 83.84 2.35 9
3 02/12/2024 15:57:17 -70.00, 117.17 96.26 02/12/2024 15:56:13 -70.01, 117.23 96.23 2.54 64
4 02/15/2024 06:32:46 -70.16,-101.93 96.97 02/15/2024 06:33:45 -70.16,-101.96 96.98 1.18 59
5 02/15/2024 07:23:30 70.04, 65.57 82.89 02/15/2024 07:23:12 70.06, 65.54 82.92 2.76 18
6 02/15/2024 08:14:01 -69.37,-126.13 97.82 02/15/2024 08:12:51 -69.45,-127.66 97.67 60.47 70
7 02/17/2024 22:49:40 -70.13, 13.90 97.93 02/17/2024 22:50:12 -70.11, 13.85 97.95 2.35 32
8 02/17/2024 23:40:24 70.00,-178.61 81.93 02/17/2024 23:39:39 70.00,-178.66 81.94 1.85 45
9 02/20/2024 14:15:56 70.35, -37.99 81.37 02/20/2024 14:17:07 70.30, -37.63 81.29 14.67 71
10 02/20/2024 15:06:35 -70.10, 129.71 98.91 02/20/2024 15:06:39 -70.08, 129.69 98.94 2.62 4
11 02/20/2024 15:57:19 69.98, -62.80 80.96 02/20/2024 15:56:06 69.97, -62.82 80.95 1.76 73
12 02/23/2024 06:32:48 70.18, 78.05 80.21 02/23/2024 06:33:35 70.17, 78.08 80.20 1.42 47
13 02/23/2024 07:23:29 -70.03,-114.42 99.96 02/23/2024 07:23:05 -70.06,-114.44 99.92 3.32 24



Historial Predications of SNOs between NOAA-20 and LANDSAT-8
